sat.trackr.live / text

‹ back to catalog

SEMI-1L

NORAD 66294 · 2025-248B

PAYLOAD ACTIVE UNKNOWN

§ Identity

Operator
Country
TURK
Launch date
2025-11-02
Launch site
AFETR
Launch vehicle
Mass (kg)
RCS (m²)

External: N2YO · Heavens-Above · Gunter

§ Orbital elements

Epoch: 2026-09-20T04:36:07.447104Z

Period
94.62 min
Inclination
45.4058°
Eccentricity
0.0003655
Mean motion
15.21840109 rev/d
Perigee alt
497.8 km
Apogee alt
502.8 km
Semi-major
6,878.4 km
B*
1.5871e-4
RAAN
331.3184°
Arg perigee
259.7482°
Mean anomaly
100.2993°
Rev number
4,898

§ Raw data

SEMI-1L1 66294U 25248B   26263.19175286  .00003387  00000+0  15871-3 0  99912 66294  45.4058 331.3184 0003655 259.7482 100.2993 15.21840109 48988

JSON: /api/v1/satellites/66294 · /tle

For live sub-satellite position, see the globe view (requires WebGL).

§ Visibility from observer

Set your observer location to see the next 7 days of passes ≥ 10°. The values pass through the URL so the page stays shareable.

No JS? Fill the form by hand. The geolocation button needs JavaScript.